H1 CPF 2 NER 2026 4 7 9 097 01 glonass138 H2 1805301 9138 43508 2026 4 7 0 0 0 2026 4 10 23 45 0 900 1 1 0 0 0 1 H9 10 0 61137 0.00000 0 11262661.774 22729585.604 -2585572.189 10 0 61137 900.00000 0 11162430.584 22185355.713 -5769079.245 10 0 61137 1800.00000 0 10801123.924 21334765.283 -8840358.226 10 0 61137 2700.00000 0 10147157.831 20227050.937 -11739635.409 10 0 61137 3600.00000 0 9180355.403 18918776.197 -14410474.506 10 0 61137 4500.00000 0 7893056.862 17471399.488 -16800883.014 10 0 61137 5400.00000 0 6290706.049 15948654.501 -18864331.056 10 0 61137 6300.00000 0 4391887.069 14413853.941 -20560662.284 10 0 61137 7200.00000 0 2227808.266 12927230.776 -21856878.726 10 0 61137 8100.00000 0 -158745.904 11543429.307 -22727784.190 10 0 61137 9000.00000 0 -2714952.097 10309251.726 -23156473.792 10 0 61137 9900.00000 0 -5379910.684 9261754.793 -23134660.367 10 0 61137 10800.00000 0 -8086952.287 8426776.204 -22662831.744 10 0 61137 11700.00000 0 -10766192.367 7817951.827 -21750236.269 10 0 61137 12600.00000 0 -13347227.644 7436264.173 -20414697.222 10 0 61137 13500.00000 0 -15761862.279 7270139.951 -18682260.109 10 0 61137 14400.00000 0 -17946750.586 7296091.340 -16586679.977 10 0 61137 15300.00000 0 -19845846.489 7479872.738 -14168758.981 10 0 61137 16200.00000 0 -21412558.186 7778102.980 -11475547.356 10 0 61137 17100.00000 0 -22611518.771 8140283.483 -8559423.546 10 0 61137 18000.00000 0 -23419899.745 8511126.140 -5477071.694 10 0 61137 18900.00000 0 -23828213.540 8833091.764 -2288376.707 10 0 61137 19800.00000 0 -23840572.656 9049031.187 944741.313 10 0 61137 20700.00000 0 -23474395.819 9104816.883 4159530.258 10 0 61137 21600.00000 0 -22759574.783 8951853.594 7293623.167 10 0 61137 22500.00000 0 -21737137.861 8549361.700 10286245.618 10 0 61137 23400.00000 0 -20457467.325 7866336.857 13079389.896 10 0 61137 24300.00000 0 -18978146.129 6883103.168 15618933.447 10 0 61137 25200.00000 0 -17361524.666 5592394.311 17855680.430 10 0 61137 26100.00000 0 -15672109.558 3999916.858 19746306.849 10 0 61137 27000.00000 0 -13973883.493 2124371.578 21254191.810 10 0 61137 27900.00000 0 -12327667.563 -3069.005 22350119.786 10 0 61137 28800.00000 0 -10788635.541 -2339806.109 23012841.103 10 0 61137 29700.00000 0 -9404082.897 -4833341.023 23229480.630 10 0 61137 30600.00000 0 -8211542.680 -7423220.344 22995787.220 10 0 61137 31500.00000 0 -7237326.015 -10043320.920 22316219.281 10 0 61137 32400.00000 0 -6495547.394 -12624381.254 21203864.642 10 0 61137 33300.00000 0 -5987674.967 -15096675.865 19680195.720 10 0 61137 34200.00000 0 -5702624.407 -17392722.795 17774663.892 10 0 61137 35100.00000 0 -5617392.373 -19449912.802 15524139.853 10 0 61137 36000.00000 0 -5698203.195 -21212951.482 12972209.607 10 0 61137 36900.00000 0 -5902120.842 -22636012.838 10168338.604 10 0 61137 37800.00000 0 -6179058.567 -23684514.312 7166919.221 10 0 61137 38700.00000 0 -6474101.642 -24336438.724 4026219.318 10 0 61137 39600.00000 0 -6730044.972 -24583147.161 807251.903 10 0 61137 40500.00000 0 -6890037.921 -24429648.063 -2427412.143 10 0 61137 41400.00000 0 -6900223.712 -23894310.616 -5614864.903 10 0 61137 42300.00000 0 -6712260.590 -23008034.023 -8693091.380 10 0 61137 43200.00000 0 -6285616.716 -21812907.358 -11602183.811 10 0 61137 44100.00000 0 -5589540.110 -20360416.432 -14285515.759 10 0 61137 45000.00000 0 -4604618.737 -18709273.398 -16690852.153 10 0 61137 45900.00000 0 -3323863.187 -16922960.850 -18771372.875 10 0 61137 46800.00000 0 -1753264.730 -15067094.281 -20486589.357 10 0 61137 47700.00000 0 88196.164 -13206714.261 -21803135.948 10 0 61137 48600.00000 0 2169092.402 -11403622.549 -22695420.533 10 0 61137 49500.00000 0 4446622.200 -9713874.108 -23146121.837 10 0 61137 50400.00000 0 6868166.199 -8185530.218 -23146523.997 10 0 61137 51300.00000 0 9373265.274 -6856766.507 -22696682.247 10 0 61137 52200.00000 0 11895936.795 -5754414.508 -21805416.901 10 0 61137 53100.00000 0 14367232.960 -4892996.902 -20490136.143 10 0 61137 54000.00000 0 16717934.710 -4274295.673 -18776491.419 10 0 61137 54900.00000 0 18881269.064 -3887469.831 -16697872.421 10 0 61137 55800.00000 0 20795536.722 -3709716.258 -14294751.768 10 0 61137 56700.00000 0 22406540.600 -3707444.284 -11613892.374 10 0 61137 57600.00000 0 23669714.302 -3837913.056 -8707433.148 10 0 61137 58500.00000 0 24551862.125 -4051261.261 -5631871.132 10 0 61137 59400.00000 0 25032438.541 -4292842.376 -2446960.178 10 0 61137 60300.00000 0 25104314.475 -4505765.813 785452.111 10 0 61137 61200.00000 0 24773999.236 -4633535.836 4002626.210 10 0 61137 62100.00000 0 24061309.853 -4622676.178 7142147.654 10 0 61137 63000.00000 0 22998502.656 -4425229.141 10143135.453 10 0 61137 63900.00000 0 21628904.411 -4001023.430 12947418.445 10 0 61137 64800.00000 0 20005101.052 -3319614.950 15500657.044 10 0 61137 65700.00000 0 18186760.263 -2361818.624 17753389.117 10 0 61137 66600.00000 0 16238179.153 -1120766.612 19661980.361 10 0 61137 67500.00000 0 14225659.270 397551.966 21189461.639 10 0 61137 68400.00000 0 12214818.013 2174293.062 22306237.966 10 0 61137 69300.00000 0 10267947.812 4178302.364 22990656.307 10 0 61137 70200.00000 0 8441532.133 6367181.073 23229421.946 10 0 61137 71100.00000 0 6784020.702 8688829.844 23017855.920 10 0 61137 72000.00000 0 5333955.563 11083408.232 22359988.704 10 0 61137 72900.00000 0 4118525.049 13485629.814 21268488.207 10 0 61137 73800.00000 0 3152605.162 15827299.191 19764422.946 10 0 61137 74700.00000 0 2438327.804 18039986.778 17876864.153 10 0 61137 75600.00000 0 1965193.564 20057731.229 15642333.469 10 0 61137 76500.00000 0 1710724.180 21819657.737 13104105.723 10 0 61137 77400.00000 0 1641627.326 23272403.340 10311379.171 10 0 61137 78300.00000 0 1715424.792 24372247.919 7318328.291 10 0 61137 79200.00000 0 1882475.505 25086861.332 4183056.690 10 0 61137 80100.00000 0 2088307.889 25396592.793 966470.151 10 0 61137 81000.00000 0 2276162.649 25295247.568 -2268908.411 10 0 61137 81900.00000 0 2389637.806 24790317.483 -5460158.692 10 0 61137 82800.00000 0 2375323.052 23902654.765 -8545193.067 10 0 61137 83700.00000 0 2185310.726 22665602.328 -11463972.235 10 0 61137 84600.00000 0 1779475.694 21123616.723 -14159681.831 10 0 61137 85500.00000 0 1127426.137 19330441.588 -16579846.143 10 0 61138 0.00000 0 210041.327 17346908.711 -18677356.264 10 0 61138 900.00000 0 -979470.617 15238458.319 -20411393.115 10 0 61138 1800.00000 0 -2435039.701 13072485.778 -21748224.217 10 0 61138 2700.00000 0 -4137751.044 10915622.821 -22661862.322 10 0 61138 3600.00000 0 -6056411.062 8831070.072 -23134570.275 10 0 61138 4500.00000 0 -8148640.347 6876091.545 -23157203.724 10 0 61138 5400.00000 0 -10362448.011 5099775.866 -22729385.173 10 0 61138 6300.00000 0 -12638222.074 3541157.239 -21859506.383 10 0 61138 7200.00000 0 -14911052.961 2227773.865 -20564559.509 10 0 61138 8100.00000 0 -17113293.226 1174722.890 -18869800.582 10 0 61138 9000.00000 0 -19177246.714 384249.961 -16808252.210 10 0 61138 9900.00000 0 -21037874.900 -154111.039 -14420055.419 10 0 61138 10800.00000 0 -22635407.450 -462855.748 -11751683.500 10 0 61138 11700.00000 0 -23917748.078 -575314.970 -8855033.360 10 0 61138 12600.00000 0 -24842575.283 -534000.190 -5786412.370 10 0 61138 13500.00000 0 -25379050.495 -388560.199 -2605440.701 10 0 61138 14400.00000 0 -25509062.598 -193436.357 626109.192 10 0 61138 15300.00000 0 -25227957.336 -5316.535 3845513.026 10 0 61138 16200.00000 0 -24544721.784 119503.908 6990311.497 10 0 61138 17100.00000 0 -23481616.887 127742.097 9999519.686 10 0 61138 18000.00000 0 -22073274.186 -28382.377 12814805.559 10 0 61138 18900.00000 0 -20365295.131 -388892.724 15381614.959 10 0 61138 19800.00000 0 -18412411.918 -984130.571 17650221.733 10 0 61138 20700.00000 0 -16276286.859 -1833243.071 19576683.294 10 0 61138 21600.00000 0 -14023041.919 -2943145.291 21123683.947 10 0 61138 22500.00000 0 -11720620.934 -4308001.854 22261250.569 10 0 61138 23400.00000 0 -9436093.587 -5909250.242 22967327.671 10 0 61138 24300.00000 0 -7233012.344 -7716165.751 23228201.468 10 0 61138 25200.00000 0 -5168931.118 -9686945.794 23038765.306 10 0 61138 26100.00000 0 -3293187.672 -11770269.805 22402621.507 10 0 61138 27000.00000 0 -1645040.851 -13907271.326 21332017.514 10 0 61138 27900.00000 0 -252239.169 -16033841.796 19847617.108 10 0 61138 28800.00000 0 869920.414 -18083171.531 17978110.262 10 0 61138 29700.00000 0 1719004.827 -19988423.259 15759668.181 10 0 61138 30600.00000 0 2305311.501 -21685427.628 13235252.871 10 0 61138 31500.00000 0 2651195.019 -23115288.605 10453793.512 10 0 61138 32400.00000 0 2789882.201 -24226789.869 7469244.555 10 0 61138 33300.00000 0 2763825.551 -24978501.130 4339543.059 10 0 61138 34200.00000 0 2622664.622 -25340495.282 1125485.106 10 0 61138 35100.00000 0 2420881.710 -25295603.382 -2110456.947 10 0 61138 36000.00000 0 2215251.531 -24840153.605 -5305353.108 10 0 61138 36900.00000 0 2062193.590 -23984162.024 -8397045.908 10 0 61138 37800.00000 0 2015140.395 -22750966.230 -11325367.347 10 0 61138 38700.00000 0 2122034.178 -21176316.446 -14033317.989 10 0 61138 39600.00000 0 2423059.473 -19306961.900 -16468184.285 10 0 61138 40500.00000 0 2948708.878 -17198791.645 -18582571.562 10 0 61138 41400.00000 0 3718265.159 -14914607.907 -20335331.927 10 0 61138 42300.00000 0 4738765.056 -12521625.538 -21692368.621 10 0 61138 43200.00000 0 6004489.618 -10088802.597 -22627301.010 10 0 61138 44100.00000 0 7497003.520 -7684113.917 -23121977.378 10 0 61138 45000.00000 0 9185742.467 -5371881.755 -23166825.735 10 0 61138 45900.00000 0 11029124.641 -3210274.815 -22761036.249 10 0 61138 46800.00000 0 12976140.013 -1249079.633 -21912572.088 10 0 61138 47700.00000 0 14968351.203 472163.432 -20638008.916 10 0 61138 48600.00000 0 16942222.274 1925582.835 -18962206.486 10 0 61138 49500.00000 0 18831678.059 3095899.087 -16917819.038 10 0 61138 50400.00000 0 20570786.894 3980811.603 -14544654.301 10 0 61138 51300.00000 0 22096454.452 4590834.773 -11888893.799 10 0 61138 52200.00000 0 23351015.924 4948592.023 -9002189.862 10 0 61138 53100.00000 0 24284617.970 5087599.387 -5940657.215 10 0 61138 54000.00000 0 24857290.827 5050591.588 -2763779.043 10 0 61138 54900.00000 0 25040623.935 4887462.680 466750.886 10 0 61138 55800.00000 0 24818975.186 4652909.494 3688227.174 10 0 61138 56700.00000 0 24190163.547 4403878.364 6838149.298 10 0 61138 57600.00000 0 23165616.489 4196923.683 9855431.878 10 0 61138 58500.00000 0 21769966.533 4085590.272 12681585.238 10 0 61138 59400.00000 0 20040114.174 4117930.229 15261843.548 10 0 61138 60300.00000 0 18023796.605 4334259.022 17546219.169 10 0 61138 61200.00000 0 15777722.054 4765245.311 19490463.365 10 0 61138 62100.00000 0 13365347.305 5430414.870 21056915.614 10 0 61138 63000.00000 0 10854390.449 6337131.577 22215225.976 10 0 61138 63900.00000 0 8314181.600 7480098.584 22942937.406 10 0 61138 64800.00000 0 5812960.662 8841401.191 23225917.515 10 0 61138 65700.00000 0 3415233.202 10391090.591 23058631.967 10 0 61138 66600.00000 0 1179293.002 12088285.289 22444254.465 10 0 61138 67500.00000 0 -844987.076 13882745.640 21394611.063 10 0 61138 68400.00000 0 -2618005.252 15716857.315 19929959.415 10 0 61138 69300.00000 0 -4111845.998 17527942.398 18078606.430 10 0 61138 70200.00000 0 -5311202.024 19250802.935 15876370.705 10 0 61138 71100.00000 0 -6213765.157 20820391.730 13365898.966 10 0 61138 72000.00000 0 -6830070.072 22174499.283 10595848.623 10 0 61138 72900.00000 0 -7182797.665 23256344.604 7619951.257 10 0 61138 73800.00000 0 -7305567.475 24016961.016 4495974.419 10 0 61138 74700.00000 0 -7241270.144 24417276.120 1284601.477 10 0 61138 75600.00000 0 -7040010.572 24429797.548 -1951748.800 10 0 61138 76500.00000 0 -6756749.057 24039832.373 -5150139.710 10 0 61138 77400.00000 0 -6448740.893 23246187.562 -8248346.812 10 0 61138 78300.00000 0 -6172883.658 22061320.773 -11186076.097 10 0 61138 79200.00000 0 -5983085.561 20510934.004 -13906145.518 10 0 61138 80100.00000 0 -5927767.479 18633026.376 -16355605.865 10 0 61138 81000.00000 0 -6047605.624 16476445.228 -18486778.399 10 0 61138 81900.00000 0 -6373611.534 14098996.024 -20258188.362 10 0 61138 82800.00000 0 -6925631.650 11565190.221 -21635375.775 10 0 61138 83700.00000 0 -7711330.794 8943725.421 -22591567.597 10 0 61138 84600.00000 0 -8725703.204 6304803.240 -23108198.211 10 0 61138 85500.00000 0 -9951132.399 3717396.993 -23175268.347 10 0 61139 0.00000 0 -11357997.627 1246583.273 -22791535.888 10 0 61139 900.00000 0 -12905802.572 -1048952.927 -21964534.960 10 0 61139 1800.00000 0 -14544777.141 -3119132.882 -20710423.954 10 0 61139 2700.00000 0 -16217887.693 -4924331.557 -19053665.139 10 0 61139 3600.00000 0 -17863169.557 -6436778.650 -17026542.796 10 0 61139 4500.00000 0 -19416284.599 -7641457.540 -14668529.420 10 0 61139 5400.00000 0 -20813196.372 -8536466.092 -12025512.550 10 0 61139 6300.00000 0 -21992850.486 -9132826.079 -9148897.518 10 0 61139 7200.00000 0 -22899747.619 -9453751.132 -6094603.829 10 0 61139 8100.00000 0 -23486301.145 -9533405.861 -2921975.006 10 0 61139 9000.00000 0 -23714880.425 -9415210.135 307376.615 10 0 61139 9900.00000 0 -23559454.095 -9149761.477 3530767.324 10 0 61139 10800.00000 0 -23006764.568 -8792464.449 6685658.206 10 0 61139 11700.00000 0 -22056984.707 -8400967.981 9710866.258 10 0 61139 12600.00000 0 -20723829.371 -8032519.404 12547746.934 10 0 61139 13500.00000 0 -19034117.360 -7741347.103 15141325.400 10 0 61139 14400.00000 0 -17026802.121 -7576182.214 17441354.998 10 0 61139 15300.00000 0 -14751511.618 -7578023.649 19403283.029 10 0 61139 16200.00000 0 -12266657.900 -7778240.307 20989105.984 10 0 61139 17100.00000 0 -9637194.492 -8197090.091 22168098.533 10 0 61139 18000.00000 0 -6932114.066 -8842717.915 22917403.072 10 0 61139 18900.00000 0 -4221789.233 -9710674.944 23222469.167 10 0 61139 19800.00000 0 -1575265.600 -10783979.719 23077334.956 10 0 61139 20700.00000 0 942381.895 -12033719.492 22484745.305 10 0 61139 21600.00000 0 3272521.043 -13420167.659 21456104.324 10 0 61139 22500.00000 0 5365161.429 -14894371.929 20011262.691 10 0 61139 23400.00000 0 7180790.192 -16400148.135 18178143.127 10 0 61139 24300.00000 0 8691768.969 -17876397.613 15992210.222 10 0 61139 25200.00000 0 9883234.439 -19259652.234 13495793.745 10 0 61139 26100.00000 0 10753465.254 -20486741.250 10737277.379 10 0 61139 27000.00000 0 11313700.268 -21497468.440 7770167.606 10 0 61139 27900.00000 0 11587415.845 -22237187.103 4652059.990 10 0 61139 28800.00000 0 11609092.775 -22659164.073 1443522.514 10 0 61139 29700.00000 0 11422524.945 -22726632.405 -1793082.449 10 0 61139 30600.00000 0 11078741.507 -22414445.042 -4994814.378 10 0 61139 31500.00000 0 10633630.846 -21710258.403 -8099384.761 10 0 61139 32400.00000 0 10145367.588 -20615194.571 -11046376.465 10 0 61139 33300.00000 0 9671752.417 -19143952.803 -13778427.624 10 0 61139 34200.00000 0 9267578.313 -17324364.461 -16242356.050 10 0 61139 35100.00000 0 8982135.761 -15196409.121 -18390201.435 10 0 61139 36000.00000 0 8856963.470 -12810732.447 -20180164.400 10 0 61139 36900.00000 0 8923940.659 -10226727.588 -21577423.690 10 0 61139 37800.00000 0 9203802.260 -7510260.146 -22554815.414 10 0 61139 38700.00000 0 9705140.307 -4731131.732 -23093361.209 10 0 61139 39600.00000 0 10423934.056 -1960387.949 -23182635.249 10 0 61139 40500.00000 0 11343628.849 732417.062 -22820963.327 10 0 61139 41400.00000 0 12435760.518 3281885.800 -22015450.562 10 0 61139 42300.00000 0 13661099.051 5629261.739 -20781837.570 10 0 61139 43200.00000 0 14971263.285 7724630.066 -19144188.296 10 0 61139 44100.00000 0 16310738.614 9528744.142 -17134415.869 10 0 61139 45000.00000 0 17619212.650 11014402.746 -14791655.993 10 0 61139 45900.00000 0 18834130.429 12167322.159 -12161500.305 10 0 61139 46800.00000 0 19893361.525 12986468.342 -9295104.835 10 0 61139 47700.00000 0 20737866.656 13483837.134 -6248191.220 10 0 61139 48600.00000 0 21314251.525 13683693.595 -3079960.366 10 0 61139 49500.00000 0 21577100.326 13621304.275 148060.008 10 0 61139 50400.00000 0 21490990.778 13341217.405 3373211.206 10 0 61139 51300.00000 0 21032105.949 12895164.886 6532919.261 10 0 61139 52200.00000 0 20189375.236 12339675.600 9565906.816 10 0 61139 53100.00000 0 18965096.621 11733501.453 12413377.560 10 0 61139 54000.00000 0 17375014.131 11134965.085 15020150.524 10 0 61139 54900.00000 0 15447847.139 10599341.132 17335722.625 10 0 61139 55800.00000 0 13224290.911 10176381.173 19315239.494 10 0 61139 56700.00000 0 10755529.654 9908086.175 20920356.592 10 0 61139 57600.00000 0 8101323.271 9826819.698 22119974.812 10 0 61139 58500.00000 0 5327746.514 9953840.746 22890837.226 10 0 61139 59400.00000 0 2504673.287 10298317.639 23217976.173 10 0 61139 60300.00000 0 -296890.837 10856864.322 23095002.630 10 0 61139 61200.00000 0 -3007518.619 11613618.888 22524232.512 10 0 61139 62100.00000 0 -5562002.709 12540861.715 21516647.355 10 0 61139 63000.00000 0 -7901820.541 13600148.262 20091689.725 10 0 61139 63900.00000 0 -9977321.329 14743910.182 18276896.523 10 0 61139 64800.00000 0 -11749545.239 15917458.851 16107376.278 10 0 61139 65700.00000 0 -13191599.671 17061308.345 13625139.389 10 0 61139 66600.00000 0 -14289535.665 18113721.257 10878293.140 10 0 61139 67500.00000 0 -15042688.054 19013370.883 7920116.065 10 0 61139 68400.00000 0 -15463465.215 19702007.918 4808028.805 10 0 61139 69300.00000 0 -15576597.296 20127019.044 1602480.975 10 0 61139 70200.00000 0 -15417874.664 20243768.781 -1634224.423 10 0 61139 71100.00000 0 -15032429.915 20017624.731 -4839145.981 10 0 61139 72000.00000 0 -14472636.382 19425579.381 -7949933.972 10 0 61139 72900.00000 0 -13795712.456 18457398.470 -10906050.858 10 0 61139 73800.00000 0 -13061133.775 17116245.982 -13649957.501 10 0 61139 74700.00000 0 -12327963.591 15418757.930 -16128241.032 10 0 61139 75600.00000 0 -11652215.130 13394560.553 -18292661.589 10 0 61139 76500.00000 0 -11084358.397 11085252.140 -20101096.887 10 0 61139 77400.00000 0 -10667077.526 8542890.393 -21518365.768 10 0 61139 78300.00000 0 -10433374.070 5828048.185 -22516914.556 10 0 61139 79200.00000 0 -10405096.656 3007518.615 -23077352.875 10 0 61139 80100.00000 0 -10591959.237 151765.007 -23188828.738 10 0 61139 81000.00000 0 -10991089.323 -2667778.016 -22849235.962 10 0 61139 81900.00000 0 -11587125.038 -5381440.183 -22065250.285 10 0 61139 82800.00000 0 -12352856.619 -7923974.392 -20852193.887 10 0 61139 83700.00000 0 -13250384.960 -10237028.519 -19233731.350 10 0 61139 84600.00000 0 -14232748.001 -12271328.112 -17241403.257 10 0 61139 85500.00000 0 -15245946.032 -13988479.975 -14914006.820 10 0 61140 0.00000 0 -16231280.116 -15362322.589 -12296836.053 10 0 61140 900.00000 0 -17127905.263 -16379769.141 -9440795.054 10 0 61140 1800.00000 0 -17875489.121 -17041107.757 -6401405.501 10 0 61140 2700.00000 0 -18416865.615 -17359750.593 -3237723.249 10 0 61140 3600.00000 0 -18700570.182 -17361442.156 -11188.870 10 0 61140 4500.00000 0 -18683150.137 -17082962.592 3215566.556 10 0 61140 5400.00000 0 -18331152.670 -16570381.867 6379936.710 10 0 61140 6300.00000 0 -17622706.768 -15876939.588 9420552.618 10 0 61140 7200.00000 0 -16548632.438 -15060640.646 12278468.975 10 0 61140 8100.00000 0 -15113030.571 -14181668.540 14898301.396 10 0 61140 9000.00000 0 -13333328.454 -13299725.479 17229292.974 10 0 61140 9900.00000 0 -11239778.683 -12471411.084 19226290.063 10 0 61140 10800.00000 0 -8874431.826 -11747749.512 20850609.197 10 0 61140 11700.00000 0 -6289624.833 -11171968.372 22070779.253 10 0 61140 12600.00000 0 -3546047.147 -10777622.044 22863145.338 10 0 61140 13500.00000 0 -710463.600 -10587137.591 23212323.520 10 0 61140 14400.00000 0 2146812.760 -10610843.831 23111498.173 10 0 61140 15300.00000 0 4954594.580 -10846524.147 22562556.424 10 0 61140 16200.00000 0 7643531.449 -11279511.950 21576057.051 10 0 61140 17100.00000 0 10148747.488 -11883325.270 20171033.995 10 0 61140 18000.00000 0 12412297.011 -12620814.606 18374637.500 10 0 61140 18900.00000 0 14385337.244 -13445776.777 16221618.877 10 0 61140 19800.00000 0 16029928.429 -14304967.925 13753667.656 10 0 61140 20700.00000 0 17320386.702 -15140431.911 11018612.873 10 0 61140 21600.00000 0 18244133.443 -15892046.681 8069502.902 10 0 61140 22500.00000 0 18802005.580 -16500181.644 4963580.900 10 0 61140 23400.00000 0 19008013.759 -16908353.794 1761175.259 10 0 61140 24300.00000 0 18888558.481 -17065769.951 -1475473.466 10 0 61140 25200.00000 0 18481137.225 -16929646.745 -4683426.179 10 0 61140 26100.00000 0 17832597.249 -16467209.067 -7800275.163 10 0 61140 27000.00000 0 16997008.157 -15657281.016 -10765365.628 10 0 61140 27900.00000 0 16033244.633 -14491400.562 -13520984.174 10 0 61140 28800.00000 0 15002382.183 -12974409.247 -16013490.068 10 0 61140 29700.00000 0 13965016.678 -11124490.578 -18194366.471 10 0 61140 30600.00000 0 12978621.705 -8972654.152 -20021170.471 10 0 61140 31500.00000 0 12095056.002 -6561686.119 -21458362.973 10 0 61140 32400.00000 0 11358326.674 -3944609.126 -22478002.108 10 0 61140 33300.00000 0 10802702.803 -1182715.586 -23060286.678 10 0 61140 34200.00000 0 10451259.026 1656743.970 -23193939.321 10 0 61140 35100.00000 0 10314910.212 4503121.311 -22876422.245 10 0 61140 36000.00000 0 10391977.490 7285073.311 -22113981.772 10 0 61140 36900.00000 0 10668303.288 9933294.801 -20921521.235 10 0 61140 37800.00000 0 11117909.844 12383168.148 -19322305.070 10 0 61140 38700.00000 0 11704172.696 14577219.786 -17347500.183 10 0 61140 39600.00000 0 12381458.928 16467282.101 -15035563.811 10 0 61140 40500.00000 0 13097160.424 18016271.502 -12431490.017 10 0 61140 41400.00000 0 13794035.706 19199509.656 -9585929.719 10 0 61140 42300.00000 0 14412761.012 20005534.019 -6554201.650 10 0 61140 43200.00000 0 14894582.492 20436365.291 -3395213.784 10 0 61140 44100.00000 0 15183957.219 20507222.157 -170316.466 10 0 61140 45000.00000 0 15231071.296 20245696.903 3057890.080 10 0 61140 45900.00000 0 14994128.633 19690428.028 6226770.470 10 0 61140 46800.00000 0 14441313.782 18889326.949 9274867.375 10 0 61140 47700.00000 0 13552346.010 17897434.407 12143089.622 10 0 61140 48600.00000 0 12319559.086 16774497.427 14775852.351 10 0 61140 49500.00000 0 10748461.162 15582369.034 17122147.530 10 0 61140 50400.00000 0 8857750.841 14382339.990 19136524.668 10 0 61140 51300.00000 0 6678788.163 13232514.252 20779963.506 10 0 61140 52200.00000 0 4254541.697 12185337.682 22020622.696 10 0 61140 53100.00000 0 1638054.583 11285382.896 22834450.812 10 0 61140 54000.00000 0 -1109507.981 10567482.256 23205648.674 10 0 61140 54900.00000 0 -3921150.188 10055286.480 23126974.612 10 0 61140 55800.00000 0 -6726582.413 9760308.686 22599887.036 10 0 61140 56700.00000 0 -9454899.723 9681493.576 21634521.502 10 0 61140 57600.00000 0 -12037292.495 9805329.822 20249502.303 10 0 61140 58500.00000 0 -14409677.939 10106501.208 18471591.490 10 0 61140 59400.00000 0 -16515144.272 10549049.709 16335181.120 10 0 61140 60300.00000 0 -18306106.661 11088002.305 13881637.414 10 0 61140 61200.00000 0 -19746085.512 11671393.779 11158508.399 10 0 61140 62100.00000 0 -20811033.042 12242600.850 8218609.327 10 0 61140 63000.00000 0 -21490152.583 12742889.566 5119002.797 10 0 61140 63900.00000 0 -21786176.029 13114068.372 1919892.885 10 0 61140 64800.00000 0 -21715087.520 13301134.395 -1316545.375 10 0 61140 65700.00000 0 -21305304.776 13254800.228 -4527378.197 10 0 61140 66600.00000 0 -20596352.473 12933793.225 -7650142.775 10 0 61140 67500.00000 0 -19637083.705 12306828.611 -10624069.846 10 0 61140 68400.00000 0 -18483524.895 11354171.391 -13391274.353 10 0 61140 69300.00000 0 -17196435.586 10068719.430 -15897890.081 10 0 61140 70200.00000 0 -15838686.743 8456560.345 -18095125.300 10 0 61140 71100.00000 0 -14472568.805 6536977.263 -19940218.227 10 0 61140 72000.00000 0 -13157143.636 4341901.877 -21397273.204 10 0 61140 72900.00000 0 -11945752.408 1914836.696 -22437961.138 10 0 61140 73800.00000 0 -10883784.626 -690709.231 -23042070.594 10 0 61140 74700.00000 0 -10006802.173 -3413206.307 -23197899.017 10 0 61140 75600.00000 0 -9339096.974 -6185429.594 -22902476.816 10 0 61140 76500.00000 0 -8892742.383 -8937026.636 -22161620.359 10 0 61140 77400.00000 0 -8667177.363 -11597221.136 -20989813.245 10 0 61140 78300.00000 0 -8649339.977 -14097540.178 -19409918.578 10 0 61140 79200.00000 0 -8814343.473 -16374451.830 -17452728.128 10 0 61140 80100.00000 0 -9126665.383 -18371803.668 -15156357.470 10 0 61140 81000.00000 0 -9541798.458 -20042961.286 -12565499.100 10 0 61140 81900.00000 0 -10008292.779 -21352558.386 -9730548.301 10 0 61140 82800.00000 0 -10470102.029 -22277786.382 -6706619.028 10 0 61140 83700.00000 0 -10869134.089 -22809170.791 -3552469.248 10 0 61140 84600.00000 0 -11147897.666 -22950803.228 -329356.919 10 0 61140 85500.00000 0 -11252132.679 -22720020.685 2900150.806 99